Location: Newark
(48.6461°N, 4.3644°W)
Time: 12:12:18
(UTC+00:00)

A-11 Canister half - Pass Details

Date: 05 February 2020
Orbit: 1517 x 1683 km, 47.2° (Epoch: 19 February)

Event Time Altitude Azimuth Distance (km) Brightness Sun altitude
Rises 22:12:37 0° 249° (WSW) 4,797 11.9 -46.7°
Reaches altitude 10° 22:15:45 10° 247° (WSW) 3,791 11.2 -47.1°
Enters shadow 22:18:43 23° 245° (WSW) 2,871 10.5 -47.5°
